Weather History for McCall, ID

Change the Weather History Date:

Monday, February 4, 2013

  Actual Average Record
Temperature  
Mean Temperature 29 °F 21 °F  
Max Temperature 38 °F 31 °F 50 °F (1963)
Min Temperature 19 °F 11 °F -22 °F (1985)
Degree Days  
Heating Degree Days 36 44  
Month to date heating degree days 158 176  
Since 1 July heating degree days 5011 5650  
Cooling Degree Days 0 0  
Month to date cooling degree days 0 0  
Year to date cooling degree days 0 0  
Moisture  
Dew Point 23 °F    
Average Humidity 83    
Maximum Humidity 96    
Minimum Humidity 69    
Precipitation  
Precipitation T in 0.08 in 0.71 in (1952)
Month to date precipitation 0.01 0.30  
Year to date precipitation 2.91 2.03  
Sea Level Pressure  
Sea Level Pressure 30.17 in    
Wind  
Wind Speed 1 mph (NW)    
Max Wind Speed 8 mph    
Max Gust Speed 10 mph    
Visibility 8 miles    
Events      
T = Trace of Precipitation, MM = Missing Value Source: NWS Daily Summary

Daily Weather History Graph

Daily Weather History Graph

Search for Another Location

Airport:

Trip Planner

Search our weather history database for the weather conditions in past years. The results will help you decide how hot, cold, wet, or windy it might be!

Date:

Astronomy

Feb. 04, 2013 Rise Set
Actual Time 7:59 AM MST 5:57 PM MST
Civil Twilight 7:28 AM MST 6:28 PM MST
Nautical Twilight 6:54 AM MST 7:03 PM MST
Astronomical Twilight 6:19 AM MST 7:37 PM MST
Moon 2:43 AM MST (2/4) 12:20 PM MST (2/4)
Length of Visible Light 10h 59m
Length of Day
9h 57m
Last Quarter, 36% of the Moon is Illuminated
Feb 4
Last Quarter
Feb 10
New
Feb 17
First Quarter
Feb 25
Full
Mar 4
Last Quarter

Hourly Weather History & Observations

Time (MST) Temp. Windchill Dew Point Humidity Pressure Visibility Wind Dir Wind Speed Gust Speed Precip Events Conditions
12:03 AM 21.2 °F - 17.6 °F 86% 30.13 in 9.0 mi Calm Calm - N/A   Overcast
12:51 AM 21.0 °F - 18.0 °F 88% 30.23 in 9.0 mi Calm Calm - N/A   Mostly Cloudy
1:14 AM 19.4 °F - 17.6 °F 93% 30.12 in 2.0 mi Calm Calm - N/A   Mostly Cloudy
1:20 AM 19.4 °F - 17.6 °F 93% 30.11 in 1.2 mi Calm Calm - N/A   Overcast
1:23 AM 19.4 °F - 17.6 °F 93% 30.12 in 2.0 mi Calm Calm - N/A   Overcast
1:43 AM 21.2 °F - 19.4 °F 93% 30.12 in 6.0 mi Calm Calm - N/A   Overcast
1:51 AM 21.0 °F - 19.0 °F 92% 30.25 in 7.0 mi Calm Calm - N/A   Overcast
4:51 AM 21.0 °F - 19.0 °F 92% 30.24 in 8.0 mi Calm Calm - N/A   Overcast
5:51 AM 21.9 °F - 19.0 °F 89% 30.23 in 7.0 mi Calm Calm - N/A   Overcast
6:51 AM 21.9 °F - 19.9 °F 92% 30.23 in 8.0 mi Calm Calm - N/A   Overcast
7:51 AM 23.0 °F - 21.0 °F 92% 30.22 in 8.0 mi Calm Calm - N/A   Overcast
8:51 AM 24.1 °F - 21.0 °F 88% 30.22 in 8.0 mi Calm Calm - N/A   Overcast
9:51 AM 24.1 °F - 21.9 °F 91% 30.26 in 7.0 mi Calm Calm - N/A   Scattered Clouds
10:51 AM 30.9 °F - 25.0 °F 79% 30.24 in 10.0 mi Calm Calm - N/A   Partly Cloudy
11:51 AM 30.9 °F - 25.0 °F 79% 30.24 in 10.0 mi Calm Calm - N/A   Scattered Clouds
12:51 PM 33.1 °F - 25.0 °F 72% 30.20 in 10.0 mi Calm Calm - N/A   Clear
1:51 PM 34.0 °F - 26.1 °F 73% 30.16 in 10.0 mi Calm Calm - N/A   Clear
2:51 PM 36.0 °F - 26.1 °F 67% 30.12 in 10.0 mi Calm Calm - N/A   Mostly Cloudy
3:51 PM 36.0 °F 33.3 °F 27.0 °F 70% 30.13 in 10.0 mi WNW 3.5 mph - N/A   Overcast
4:51 PM 35.1 °F 31.0 °F 27.0 °F 72% 30.15 in 10.0 mi West 4.6 mph - N/A   Overcast
5:51 PM 34.0 °F - 27.0 °F 75% 30.13 in 10.0 mi Calm Calm - N/A   Overcast
6:51 PM 33.1 °F - 28.0 °F 82% 30.12 in 10.0 mi Calm Calm - N/A   Overcast
7:51 PM 33.1 °F - 28.0 °F 82% 30.12 in 10.0 mi Calm Calm - N/A   Overcast
8:51 PM 32.0 °F - 28.0 °F 85% 30.12 in 10.0 mi Calm Calm - N/A   Overcast
10:51 PM 34.0 °F 28.0 °F 28.0 °F 79% 30.09 in 10.0 mi NE 6.9 mph - 0.00 in   Overcast
11:51 PM 32.0 °F 27.5 °F 28.9 °F 88% 30.08 in 10.0 mi NNW 4.6 mph - N/A   Overcast